iso_date,epoch_date,Year,Hour,Min,DOY,POS_DOY,Lat,Lon,BP,Ts,Ta,has_bp,has_ts,has_ta,BuoyID,Buoy_Type,Buoy_Owner,Logistics,Hemisphere
2020-08-25T02:00:57Z,1598320858,2020,2,1,238.084,238.084,72.75841,-155.68113,1010.3,-999.00,-999.0,yes,no,no,300534060315050,unknown,unknown,unknown,North
2020-08-25T03:00:00Z,1598324400,2020,3,0,238.125,238.125,72.76196,-155.68107,1010.4,-999.00,-999.0,yes,no,no,300534060315050,unknown,unknown,unknown,North
2020-08-25T04:00:02Z,1598328003,2020,4,0,238.1667,238.1667,72.7649,-155.68078,1010.7,-999.00,-999.0,yes,no,no,300534060315050,unknown,unknown,unknown,North
2020-08-25T04:59:57Z,1598331597,2020,5,0,238.2083,238.2083,72.76718,-155.67855,1011.0,-999.00,-999.0,yes,no,no,300534060315050,unknown,unknown,unknown,North
2020-08-25T06:00:00Z,1598335200,2020,6,0,238.25,238.25,72.76881,-155.67755,1011.0,-999.00,-999.0,yes,no,no,300534060315050,unknown,unknown,unknown,North
2020-08-25T07:00:02Z,1598338803,2020,7,0,238.2917,238.2917,72.77126,-155.6804,1011.3,-999.00,-999.0,yes,no,no,300534060315050,unknown,unknown,unknown,North
2020-08-25T07:59:57Z,1598342397,2020,8,0,238.3333,238.3333,72.77405,-155.68326,1011.5,-999.00,-999.0,yes,no,no,300534060315050,unknown,unknown,unknown,North
2020-08-25T09:00:00Z,1598346000,2020,9,0,238.375,238.375,72.77719,-155.68408,1011.8,-999.00,-999.0,yes,no,no,300534060315050,unknown,unknown,unknown,North
2020-08-25T10:00:02Z,1598349603,2020,10,0,238.4167,238.4167,72.78022,-155.68036,1012.1,-999.00,-999.0,yes,no,no,300534060315050,unknown,unknown,unknown,North
2020-08-25T10:59:57Z,1598353197,2020,11,0,238.4583,238.4583,72.78271,-155.67621,1012.3,-999.00,-999.0,yes,no,no,300534060315050,unknown,unknown,unknown,North
2020-08-25T12:00:00Z,1598356800,2020,12,0,238.5,238.5,72.78529,-155.67265,1012.4,-999.00,-999.0,yes,no,no,300534060315050,unknown,unknown,unknown,North
2020-08-25T13:00:02Z,1598360403,2020,13,0,238.5417,238.5417,72.78741,-155.66582,1012.7,-999.00,-999.0,yes,no,no,300534060315050,unknown,unknown,unknown,North
2020-08-25T13:59:57Z,1598363997,2020,14,0,238.5833,238.5833,72.78926,-155.65767,1013.0,-999.00,-999.0,yes,no,no,300534060315050,unknown,unknown,unknown,North
2020-08-25T15:00:00Z,1598367600,2020,15,0,238.625,238.625,72.79091,-155.64653,1013.1,-999.00,-999.0,yes,no,no,300534060315050,unknown,unknown,unknown,North
2020-08-25T16:00:02Z,1598371203,2020,16,0,238.6667,238.6667,72.79069,-155.63457,1013.3,-999.00,-999.0,yes,no,no,300534060315050,unknown,unknown,unknown,North
2020-08-25T16:59:57Z,1598374797,2020,17,0,238.7083,238.7083,72.78966,-155.62602,1013.6,-999.00,-999.0,yes,no,no,300534060315050,unknown,unknown,unknown,North
2020-08-25T18:00:00Z,1598378400,2020,18,0,238.75,238.75,72.78734,-155.61941,1013.8,-999.00,-999.0,yes,no,no,300534060315050,unknown,unknown,unknown,North
2020-08-25T19:00:02Z,1598382003,2020,19,0,238.7917,238.7917,72.78369,-155.61853,1014.1,-999.00,-999.0,yes,no,no,300534060315050,unknown,unknown,unknown,North
2020-08-25T19:59:57Z,1598385597,2020,20,0,238.8333,238.8333,72.78061,-155.62522,1014.5,-999.00,-999.0,yes,no,no,300534060315050,unknown,unknown,unknown,North
2020-08-25T21:00:00Z,1598389200,2020,21,0,238.875,238.875,72.77858,-155.63413,1014.9,-999.00,-999.0,yes,no,no,300534060315050,unknown,unknown,unknown,North
2020-08-25T22:00:02Z,1598392803,2020,22,0,238.9167,238.9167,72.77809,-155.64566,1015.1,-999.00,-999.0,yes,no,no,300534060315050,unknown,unknown,unknown,North
2020-08-25T22:59:57Z,1598396397,2020,23,0,238.9583,238.9583,72.77842,-155.65908,1015.5,-999.00,-999.0,yes,no,no,300534060315050,unknown,unknown,unknown,North
2020-08-26T00:00:00Z,1598400000,2020,0,0,239.0,239.0,72.77978,-155.66985,1015.6,-999.00,-999.0,yes,no,no,300534060315050,unknown,unknown,unknown,North
2020-08-26T01:00:02Z,1598403603,2020,1,0,239.0417,239.0417,72.78053,-155.67979,1015.7,-999.00,-999.0,yes,no,no,300534060315050,unknown,unknown,unknown,North
2020-08-26T01:59:57Z,1598407197,2020,2,0,239.0833,239.0833,72.78227,-155.69093,1016.1,-999.00,-999.0,yes,no,no,300534060315050,unknown,unknown,unknown,North
2020-08-26T03:00:00Z,1598410800,2020,3,0,239.125,239.125,72.78396,-155.69982,1016.2,-999.00,-999.0,yes,no,no,300534060315050,unknown,unknown,unknown,North
2020-08-26T04:00:02Z,1598414403,2020,4,0,239.1667,239.1667,72.78573,-155.70795,1016.1,-999.00,-999.0,yes,no,no,300534060315050,unknown,unknown,unknown,North
2020-08-26T04:59:57Z,1598417997,2020,5,0,239.2083,239.2083,72.78681,-155.72063,1016.5,-999.00,-999.0,yes,no,no,300534060315050,unknown,unknown,unknown,North
2020-08-26T06:00:00Z,1598421600,2020,6,0,239.25,239.25,72.78692,-155.73742,1016.8,-999.00,-999.0,yes,no,no,300534060315050,unknown,unknown,unknown,North
2020-08-26T07:00:02Z,1598425203,2020,7,0,239.2917,239.2917,72.78526,-155.7581,1017.2,-999.00,-999.0,yes,no,no,300534060315050,unknown,unknown,unknown,North
2020-08-26T07:59:57Z,1598428797,2020,8,0,239.3333,239.3333,72.7838,-155.78431,1017.8,-999.00,-999.0,yes,no,no,300534060315050,unknown,unknown,unknown,North
2020-08-26T09:00:00Z,1598432400,2020,9,0,239.375,239.375,72.78311,-155.81311,1018.0,-999.00,-999.0,yes,no,no,300534060315050,unknown,unknown,unknown,North
2020-08-26T10:00:02Z,1598436003,2020,10,0,239.4167,239.4167,72.78399,-155.84666,1018.1,-999.00,-999.0,yes,no,no,300534060315050,unknown,unknown,unknown,North
2020-08-26T10:59:57Z,1598439597,2020,11,0,239.4583,239.4583,72.78771,-155.87878,1018.2,-999.00,-999.0,yes,no,no,300534060315050,unknown,unknown,unknown,North
2020-08-26T12:00:00Z,1598443200,2020,12,0,239.5,239.5,72.79389,-155.91376,1018.3,-999.00,-999.0,yes,no,no,300534060315050,unknown,unknown,unknown,North
2020-08-26T13:00:02Z,1598446803,2020,13,0,239.5417,239.5417,72.80216,-155.94314,1018.4,-999.00,-999.0,yes,no,no,300534060315050,unknown,unknown,unknown,North
2020-08-26T13:59:57Z,1598450397,2020,14,0,239.5833,239.5833,72.80939,-155.96788,1018.5,-999.00,-999.0,yes,no,no,300534060315050,unknown,unknown,unknown,North
2020-08-26T15:00:00Z,1598454000,2020,15,0,239.625,239.625,72.81585,-155.98903,1018.8,-999.00,-999.0,yes,no,no,300534060315050,unknown,unknown,unknown,North
2020-08-26T16:00:02Z,1598457603,2020,16,0,239.6667,239.6667,72.82199,-156.00896,1019.1,-999.00,-999.0,yes,no,no,300534060315050,unknown,unknown,unknown,North
2020-08-26T18:00:00Z,1598464800,2020,18,0,239.75,239.75,72.83053,-156.04661,1019.5,-999.00,-999.0,yes,no,no,300534060315050,unknown,unknown,unknown,North
2020-08-26T19:00:02Z,1598468403,2020,19,0,239.7917,239.7917,72.83325,-156.06917,1019.9,-999.00,-999.0,yes,no,no,300534060315050,unknown,unknown,unknown,North
2020-08-26T19:59:57Z,1598471997,2020,20,0,239.8333,239.8333,72.83606,-156.09469,1020.2,-999.00,-999.0,yes,no,no,300534060315050,unknown,unknown,unknown,North
2020-08-26T21:00:00Z,1598475600,2020,21,0,239.875,239.875,72.83948,-156.12127,1020.4,-999.00,-999.0,yes,no,no,300534060315050,unknown,unknown,unknown,North
2020-08-26T22:00:02Z,1598479203,2020,22,0,239.9167,239.9167,72.84418,-156.14662,1020.5,-999.00,-999.0,yes,no,no,300534060315050,unknown,unknown,unknown,North
2020-08-26T22:59:57Z,1598482797,2020,23,0,239.9583,239.9583,72.85036,-156.17071,1020.8,-999.00,-999.0,yes,no,no,300534060315050,unknown,unknown,unknown,North
2020-08-27T00:00:00Z,1598486400,2020,0,0,240.0,240.0,72.85629,-156.19263,1020.8,-999.00,-999.0,yes,no,no,300534060315050,unknown,unknown,unknown,North
2020-08-27T01:00:02Z,1598490003,2020,1,0,240.0417,240.0417,72.86093,-156.20928,1021.0,-999.00,-999.0,yes,no,no,300534060315050,unknown,unknown,unknown,North
2020-08-27T01:59:57Z,1598493597,2020,2,0,240.0833,240.0833,72.86419,-156.22854,1021.1,-999.00,-999.0,yes,no,no,300534060315050,unknown,unknown,unknown,North
2020-08-27T03:00:00Z,1598497200,2020,3,0,240.125,240.125,72.86687,-156.24629,1021.5,-999.00,-999.0,yes,no,no,300534060315050,unknown,unknown,unknown,North
2020-08-27T04:00:02Z,1598500803,2020,4,0,240.1667,240.1667,72.8691,-156.26528,1021.6,-999.00,-999.0,yes,no,no,300534060315050,unknown,unknown,unknown,North
2020-08-27T04:59:57Z,1598504397,2020,5,0,240.2083,240.2083,72.872,-156.28299,1021.9,-999.00,-999.0,yes,no,no,300534060315050,unknown,unknown,unknown,North
2020-08-27T06:00:00Z,1598508000,2020,6,0,240.25,240.25,72.87394,-156.30004,1022.1,-999.00,-999.0,yes,no,no,300534060315050,unknown,unknown,unknown,North
2020-08-27T07:00:02Z,1598511603,2020,7,0,240.2917,240.2917,72.87618,-156.31895,1022.6,-999.00,-999.0,yes,no,no,300534060315050,unknown,unknown,unknown,North
2020-08-27T07:59:57Z,1598515197,2020,8,0,240.3333,240.3333,72.87885,-156.33868,1022.8,-999.00,-999.0,yes,no,no,300534060315050,unknown,unknown,unknown,North
2020-08-27T09:00:00Z,1598518800,2020,9,0,240.375,240.375,72.8811,-156.35798,1022.9,-999.00,-999.0,yes,no,no,300534060315050,unknown,unknown,unknown,North
2020-08-27T10:00:02Z,1598522403,2020,10,0,240.4167,240.4167,72.88379,-156.38051,1023.2,-999.00,-999.0,yes,no,no,300534060315050,unknown,unknown,unknown,North
2020-08-27T10:59:57Z,1598525997,2020,11,0,240.4583,240.4583,72.88634,-156.40714,1023.3,-999.00,-999.0,yes,no,no,300534060315050,unknown,unknown,unknown,North
2020-08-27T12:00:00Z,1598529600,2020,12,0,240.5,240.5,72.89045,-156.43352,1023.3,-999.00,-999.0,yes,no,no,300534060315050,unknown,unknown,unknown,North
2020-08-27T13:00:02Z,1598533203,2020,13,0,240.5417,240.5417,72.89621,-156.45364,1023.4,-999.00,-999.0,yes,no,no,300534060315050,unknown,unknown,unknown,North
2020-08-27T13:59:57Z,1598536797,2020,14,0,240.5833,240.5833,72.90427,-156.4703,1023.5,-999.00,-999.0,yes,no,no,300534060315050,unknown,unknown,unknown,North
2020-08-27T15:00:00Z,1598540400,2020,15,0,240.625,240.625,72.91172,-156.48752,1023.6,-999.00,-999.0,yes,no,no,300534060315050,unknown,unknown,unknown,North
2020-08-27T16:00:02Z,1598544003,2020,16,0,240.6667,240.6667,72.91779,-156.50438,1023.8,-999.00,-999.0,yes,no,no,300534060315050,unknown,unknown,unknown,North
2020-08-27T16:59:57Z,1598547597,2020,17,0,240.7083,240.7083,72.92192,-156.5173,1024.0,-999.00,-999.0,yes,no,no,300534060315050,unknown,unknown,unknown,North
2020-08-27T18:00:00Z,1598551200,2020,18,0,240.75,240.75,72.92578,-156.53232,1024.0,-999.00,-999.0,yes,no,no,300534060315050,unknown,unknown,unknown,North
2020-08-27T19:00:02Z,1598554803,2020,19,0,240.7917,240.7917,72.92915,-156.54781,1023.7,-999.00,-999.0,yes,no,no,300534060315050,unknown,unknown,unknown,North
2020-08-27T19:59:57Z,1598558397,2020,20,0,240.8333,240.8333,72.92511,-156.56606,1023.7,-999.00,-999.0,yes,no,no,300534060315050,unknown,unknown,unknown,North
2020-08-27T21:00:00Z,1598562000,2020,21,0,240.875,240.875,72.91987,-156.58904,1023.5,-999.00,-999.0,yes,no,no,300534060315050,unknown,unknown,unknown,North
2020-08-27T22:00:02Z,1598565603,2020,22,0,240.9167,240.9167,72.91611,-156.6165,1023.7,-999.00,-999.0,yes,no,no,300534060315050,unknown,unknown,unknown,North
2020-08-27T22:59:57Z,1598569197,2020,23,0,240.9583,240.9583,72.91237,-156.63984,1023.7,-999.00,-999.0,yes,no,no,300534060315050,unknown,unknown,unknown,North
2020-08-28T00:00:00Z,1598572800,2020,0,0,241.0,241.0,72.90919,-156.66037,1024.0,-999.00,-999.0,yes,no,no,300534060315050,unknown,unknown,unknown,North
2020-08-28T01:00:02Z,1598576403,2020,1,0,241.0417,241.0417,72.90543,-156.68639,1024.1,-999.00,-999.0,yes,no,no,300534060315050,unknown,unknown,unknown,North
2020-08-28T01:59:57Z,1598579997,2020,2,0,241.0833,241.0833,72.90083,-156.71718,1023.9,-999.00,-999.0,yes,no,no,300534060315050,unknown,unknown,unknown,North
2020-08-28T03:00:00Z,1598583600,2020,3,0,241.125,241.125,72.89533,-156.75128,1024.3,-999.00,-999.0,yes,no,no,300534060315050,unknown,unknown,unknown,North
2020-08-28T04:00:02Z,1598587203,2020,4,0,241.1667,241.1667,72.8895,-156.79174,1024.4,-999.00,-999.0,yes,no,no,300534060315050,unknown,unknown,unknown,North
2020-08-28T04:59:57Z,1598590797,2020,5,0,241.2083,241.2083,72.88567,-156.841,1024.3,-999.00,-999.0,yes,no,no,300534060315050,unknown,unknown,unknown,North
2020-08-28T06:00:00Z,1598594400,2020,6,0,241.25,241.25,72.88327,-156.88798,1024.5,-999.00,-999.0,yes,no,no,300534060315050,unknown,unknown,unknown,North
2020-08-28T07:00:02Z,1598598003,2020,7,0,241.2917,241.2917,72.88138,-156.93678,1024.7,-999.00,-999.0,yes,no,no,300534060315050,unknown,unknown,unknown,North
2020-08-28T07:59:57Z,1598601597,2020,8,0,241.3333,241.3333,72.88164,-156.98985,1024.8,-999.00,-999.0,yes,no,no,300534060315050,unknown,unknown,unknown,North
2020-08-28T09:00:00Z,1598605200,2020,9,0,241.375,241.375,72.88287,-157.04582,1024.9,-999.00,-999.0,yes,no,no,300534060315050,unknown,unknown,unknown,North
2020-08-28T10:00:02Z,1598608803,2020,10,0,241.4167,241.4167,72.88552,-157.10569,1025.0,-999.00,-999.0,yes,no,no,300534060315050,unknown,unknown,unknown,North
2020-08-28T10:59:57Z,1598612397,2020,11,0,241.4583,241.4583,72.88721,-157.15907,1025.0,-999.00,-999.0,yes,no,no,300534060315050,unknown,unknown,unknown,North
2020-08-28T12:00:00Z,1598616000,2020,12,0,241.5,241.5,72.88976,-157.21803,1025.0,-999.00,-999.0,yes,no,no,300534060315050,unknown,unknown,unknown,North
2020-08-28T13:00:02Z,1598619603,2020,13,0,241.5417,241.5417,72.89214,-157.27631,1025.0,-999.00,-999.0,yes,no,no,300534060315050,unknown,unknown,unknown,North
2020-08-28T13:59:57Z,1598623197,2020,14,0,241.5833,241.5833,72.89711,-157.3408,1025.0,-999.00,-999.0,yes,no,no,300534060315050,unknown,unknown,unknown,North
2020-08-28T15:00:00Z,1598626800,2020,15,0,241.625,241.625,72.90324,-157.41448,1024.8,-999.00,-999.0,yes,no,no,300534060315050,unknown,unknown,unknown,North
2020-08-28T16:00:02Z,1598630403,2020,16,0,241.6667,241.6667,72.9072,-157.48622,1024.7,-999.00,-999.0,yes,no,no,300534060315050,unknown,unknown,unknown,North
2020-08-28T16:59:57Z,1598633997,2020,17,0,241.7083,241.7083,72.91528,-157.56813,1024.8,-999.00,-999.0,yes,no,no,300534060315050,unknown,unknown,unknown,North
2020-08-28T18:00:00Z,1598637600,2020,18,0,241.75,241.75,72.9264,-157.65955,1025.5,-999.00,-999.0,yes,no,no,300534060315050,unknown,unknown,unknown,North
2020-08-28T19:00:02Z,1598641203,2020,19,0,241.7917,241.7917,72.9392,-157.75886,1024.9,-999.00,-999.0,yes,no,no,300534060315050,unknown,unknown,unknown,North
2020-08-28T19:59:57Z,1598644797,2020,20,0,241.8333,241.8333,72.95581,-157.85799,1025.1,-999.00,-999.0,yes,no,no,300534060315050,unknown,unknown,unknown,North
2020-08-28T21:00:00Z,1598648400,2020,21,0,241.875,241.875,72.97599,-157.96014,1025.1,-999.00,-999.0,yes,no,no,300534060315050,unknown,unknown,unknown,North
2020-08-28T22:00:02Z,1598652003,2020,22,0,241.9167,241.9167,72.99892,-158.06269,1025.0,-999.00,-999.0,yes,no,no,300534060315050,unknown,unknown,unknown,North
2020-08-28T22:59:57Z,1598655597,2020,23,0,241.9583,241.9583,73.02429,-158.16148,1025.2,-999.00,-999.0,yes,no,no,300534060315050,unknown,unknown,unknown,North
2020-08-29T00:00:00Z,1598659200,2020,0,0,242.0,242.0,73.05178,-158.25754,1025.0,-999.00,-999.0,yes,no,no,300534060315050,unknown,unknown,unknown,North
2020-08-29T01:00:02Z,1598662803,2020,1,0,242.0417,242.0417,73.07473,-158.34818,1025.2,-999.00,-999.0,yes,no,no,300534060315050,unknown,unknown,unknown,North
2020-08-29T01:59:57Z,1598666397,2020,2,0,242.0833,242.0833,73.09113,-158.43381,1025.5,-999.00,-999.0,yes,no,no,300534060315050,unknown,unknown,unknown,North
2020-08-29T03:00:00Z,1598670000,2020,3,0,242.125,242.125,73.10449,-158.51848,1025.6,-999.00,-999.0,yes,no,no,300534060315050,unknown,unknown,unknown,North
2020-08-29T04:00:02Z,1598673603,2020,4,0,242.1667,242.1667,73.10982,-158.58935,1025.6,-999.00,-999.0,yes,no,no,300534060315050,unknown,unknown,unknown,North
2020-08-29T04:59:57Z,1598677197,2020,5,0,242.2083,242.2083,73.10329,-158.63327,1025.7,-999.00,-999.0,yes,no,no,300534060315050,unknown,unknown,unknown,North
2020-08-29T06:00:00Z,1598680800,2020,6,0,242.25,242.25,73.10121,-158.68634,1025.7,-999.00,-999.0,yes,no,no,300534060315050,unknown,unknown,unknown,North
2020-08-29T07:59:57Z,1598687997,2020,8,0,242.3333,242.3333,73.09812,-158.78326,1025.9,-999.00,-999.0,yes,no,no,300534060315050,unknown,unknown,unknown,North
2020-08-29T09:00:00Z,1598691600,2020,9,0,242.375,242.375,73.09885,-158.8313,1026.0,-999.00,-999.0,yes,no,no,300534060315050,unknown,unknown,unknown,North
2020-08-29T10:00:02Z,1598695203,2020,10,0,242.4167,242.4167,73.10016,-158.87728,1025.9,-999.00,-999.0,yes,no,no,300534060315050,unknown,unknown,unknown,North
2020-08-29T10:59:57Z,1598698797,2020,11,0,242.4583,242.4583,73.10103,-158.91582,1025.8,-999.00,-999.0,yes,no,no,300534060315050,unknown,unknown,unknown,North
2020-08-29T12:00:00Z,1598702400,2020,12,0,242.5,242.5,73.09865,-158.94309,1025.8,-999.00,-999.0,yes,no,no,300534060315050,unknown,unknown,unknown,North
2020-08-29T13:00:02Z,1598706003,2020,13,0,242.5417,242.5417,73.09477,-158.9614,1025.5,-999.00,-999.0,yes,no,no,300534060315050,unknown,unknown,unknown,North
2020-08-29T13:59:57Z,1598709597,2020,14,0,242.5833,242.5833,73.08949,-158.98116,1025.3,-999.00,-999.0,yes,no,no,300534060315050,unknown,unknown,unknown,North
2020-08-29T15:00:00Z,1598713200,2020,15,0,242.625,242.625,73.08437,-159.00188,1025.1,-999.00,-999.0,yes,no,no,300534060315050,unknown,unknown,unknown,North
2020-08-29T16:00:02Z,1598716803,2020,16,0,242.6667,242.6667,73.07497,-159.02318,1025.0,-999.00,-999.0,yes,no,no,300534060315050,unknown,unknown,unknown,North
2020-08-29T16:59:57Z,1598720397,2020,17,0,242.7083,242.7083,73.06482,-159.04266,1024.5,-999.00,-999.0,yes,no,no,300534060315050,unknown,unknown,unknown,North
2020-08-29T18:00:00Z,1598724000,2020,18,0,242.75,242.75,73.05364,-159.06921,1024.4,-999.00,-999.0,yes,no,no,300534060315050,unknown,unknown,unknown,North
2020-08-29T19:00:02Z,1598727603,2020,19,0,242.7917,242.7917,73.04021,-159.09536,1024.0,-999.00,-999.0,yes,no,no,300534060315050,unknown,unknown,unknown,North
2020-08-29T19:59:57Z,1598731197,2020,20,0,242.8333,242.8333,73.02816,-159.12927,1023.7,-999.00,-999.0,yes,no,no,300534060315050,unknown,unknown,unknown,North
2020-08-29T21:00:00Z,1598734800,2020,21,0,242.875,242.875,73.01741,-159.16812,1023.6,-999.00,-999.0,yes,no,no,300534060315050,unknown,unknown,unknown,North
2020-08-29T22:00:02Z,1598738403,2020,22,0,242.9167,242.9167,73.00887,-159.2089,1023.1,-999.00,-999.0,yes,no,no,300534060315050,unknown,unknown,unknown,North
2020-08-29T22:59:57Z,1598741997,2020,23,0,242.9583,242.9583,73.00209,-159.24957,1022.9,-999.00,-999.0,yes,no,no,300534060315050,unknown,unknown,unknown,North
2020-08-30T00:00:00Z,1598745600,2020,0,0,243.0,243.0,72.99609,-159.28207,1022.9,-999.00,-999.0,yes,no,no,300534060315050,unknown,unknown,unknown,North
2020-08-30T01:00:02Z,1598749203,2020,1,0,243.0417,243.0417,72.99094,-159.30693,1022.2,-999.00,-999.0,yes,no,no,300534060315050,unknown,unknown,unknown,North
2020-08-30T01:59:57Z,1598752797,2020,2,0,243.0833,243.0833,72.98718,-159.33056,1021.8,-999.00,-999.0,yes,no,no,300534060315050,unknown,unknown,unknown,North
2020-08-30T03:00:00Z,1598756400,2020,3,0,243.125,243.125,72.98089,-159.35054,1021.4,-999.00,-999.0,yes,no,no,300534060315050,unknown,unknown,unknown,North
2020-08-30T04:00:02Z,1598760003,2020,4,0,243.1667,243.1667,72.97395,-159.37393,1021.1,-999.00,-999.0,yes,no,no,300534060315050,unknown,unknown,unknown,North
2020-08-30T04:59:57Z,1598763597,2020,5,0,243.2083,243.2083,72.96749,-159.39849,1020.7,-999.00,-999.0,yes,no,no,300534060315050,unknown,unknown,unknown,North
2020-08-30T06:00:00Z,1598767200,2020,6,0,243.25,243.25,72.95882,-159.42161,1020.1,-999.00,-999.0,yes,no,no,300534060315050,unknown,unknown,unknown,North
2020-08-30T07:00:02Z,1598770803,2020,7,0,243.2917,243.2917,72.95079,-159.45178,1019.7,-999.00,-999.0,yes,no,no,300534060315050,unknown,unknown,unknown,North
2020-08-30T07:59:57Z,1598774397,2020,8,0,243.3333,243.3333,72.94223,-159.48068,1019.4,-999.00,-999.0,yes,no,no,300534060315050,unknown,unknown,unknown,North
2020-08-30T09:00:00Z,1598778000,2020,9,0,243.375,243.375,72.93379,-159.51152,1019.1,-999.00,-999.0,yes,no,no,300534060315050,unknown,unknown,unknown,North
2020-08-30T10:00:02Z,1598781603,2020,10,0,243.4167,243.4167,72.92647,-159.54971,1018.9,-999.00,-999.0,yes,no,no,300534060315050,unknown,unknown,unknown,North
2020-08-30T10:59:57Z,1598785197,2020,11,0,243.4583,243.4583,72.92105,-159.58395,1018.6,-999.00,-999.0,yes,no,no,300534060315050,unknown,unknown,unknown,North
2020-08-30T12:00:00Z,1598788800,2020,12,0,243.5,243.5,72.91741,-159.6104,1018.1,-999.00,-999.0,yes,no,no,300534060315050,unknown,unknown,unknown,North
2020-08-30T13:00:02Z,1598792403,2020,13,0,243.5417,243.5417,72.91547,-159.62988,1017.6,-999.00,-999.0,yes,no,no,300534060315050,unknown,unknown,unknown,North
2020-08-30T13:59:57Z,1598795997,2020,14,0,243.5833,243.5833,72.91355,-159.64284,1017.3,-999.00,-999.0,yes,no,no,300534060315050,unknown,unknown,unknown,North
2020-08-30T15:00:00Z,1598799600,2020,15,0,243.625,243.625,72.91207,-159.65231,1016.9,-999.00,-999.0,yes,no,no,300534060315050,unknown,unknown,unknown,North
2020-08-30T16:00:02Z,1598803203,2020,16,0,243.6667,243.6667,72.9089,-159.65321,1016.7,-999.00,-999.0,yes,no,no,300534060315050,unknown,unknown,unknown,North
2020-08-30T16:59:57Z,1598806797,2020,17,0,243.7083,243.7083,72.90497,-159.65545,1015.6,-999.00,-999.0,yes,no,no,300534060315050,unknown,unknown,unknown,North
2020-08-30T18:00:00Z,1598810400,2020,18,0,243.75,243.75,72.90064,-159.6609,1015.1,-999.00,-999.0,yes,no,no,300534060315050,unknown,unknown,unknown,North
2020-08-30T19:00:02Z,1598814003,2020,19,0,243.7917,243.7917,72.89721,-159.67573,1014.8,-999.00,-999.0,yes,no,no,300534060315050,unknown,unknown,unknown,North
2020-08-30T19:59:57Z,1598817597,2020,20,0,243.8333,243.8333,72.8957,-159.69977,1014.3,-999.00,-999.0,yes,no,no,300534060315050,unknown,unknown,unknown,North
2020-08-30T21:00:00Z,1598821200,2020,21,0,243.875,243.875,72.89314,-159.72776,1014.0,-999.00,-999.0,yes,no,no,300534060315050,unknown,unknown,unknown,North
2020-08-30T22:00:02Z,1598824803,2020,22,0,243.9167,243.9167,72.88885,-159.76552,1013.5,-999.00,-999.0,yes,no,no,300534060315050,unknown,unknown,unknown,North
2020-08-30T22:59:57Z,1598828397,2020,23,0,243.9583,243.9583,72.88435,-159.80485,1013.0,-999.00,-999.0,yes,no,no,300534060315050,unknown,unknown,unknown,North
2020-08-31T00:00:00Z,1598832000,2020,0,0,244.0,244.0,72.87888,-159.83693,1012.4,-999.00,-999.0,yes,no,no,300534060315050,unknown,unknown,unknown,North
2020-08-31T01:00:02Z,1598835603,2020,1,0,244.0417,244.0417,72.87537,-159.87394,1011.7,-999.00,-999.0,yes,no,no,300534060315050,unknown,unknown,unknown,North
2020-08-31T01:59:57Z,1598839197,2020,2,0,244.0833,244.0833,72.87431,-159.91407,1011.2,-999.00,-999.0,yes,no,no,300534060315050,unknown,unknown,unknown,North
2020-08-31T03:00:00Z,1598842800,2020,3,0,244.125,244.125,72.87227,-159.94845,1010.5,-999.00,-999.0,yes,no,no,300534060315050,unknown,unknown,unknown,North
2020-08-31T04:00:02Z,1598846403,2020,4,0,244.1667,244.1667,72.87078,-159.98858,1009.9,-999.00,-999.0,yes,no,no,300534060315050,unknown,unknown,unknown,North
2020-08-31T04:59:57Z,1598849997,2020,5,0,244.2083,244.2083,72.86838,-160.03054,1009.5,-999.00,-999.0,yes,no,no,300534060315050,unknown,unknown,unknown,North
2020-08-31T06:00:00Z,1598853600,2020,6,0,244.25,244.25,72.86446,-160.08014,1009.1,-999.00,-999.0,yes,no,no,300534060315050,unknown,unknown,unknown,North
2020-08-31T07:00:02Z,1598857203,2020,7,0,244.2917,244.2917,72.85626,-160.13306,1008.7,-999.00,-999.0,yes,no,no,300534060315050,unknown,unknown,unknown,North
2020-08-31T07:59:57Z,1598860797,2020,8,0,244.3333,244.3333,72.84632,-160.18428,1008.6,-999.00,-999.0,yes,no,no,300534060315050,unknown,unknown,unknown,North
2020-08-31T09:00:00Z,1598864400,2020,9,0,244.375,244.375,72.83531,-160.23424,1008.3,-999.00,-999.0,yes,no,no,300534060315050,unknown,unknown,unknown,North
2020-08-31T10:00:02Z,1598868003,2020,10,0,244.4167,244.4167,72.82471,-160.27976,1008.1,-999.00,-999.0,yes,no,no,300534060315050,unknown,unknown,unknown,North
2020-08-31T10:59:57Z,1598871597,2020,11,0,244.4583,244.4583,72.81595,-160.32076,1007.7,-999.00,-999.0,yes,no,no,300534060315050,unknown,unknown,unknown,North